EW6129 Weather Reports


Display with metric or nautical units.
time (UTC)temp
F
wind
direction
speed
MPH
gust
MPH
rain 1hr
in
rain 24hr
in
rain mn
in
humidity
%
barometer
mb
20260506013603 49 17 3.0 7.0 0.00 0.00 0.00 83 1009.2
20260506012703 49 16 3.0 9.0 0.00 0.00 0.00 82 1009.3
20260506011803 49 25 3.0 11.0 0.00 0.00 0.00 83 1009.4
20260506010903 49 28 3.0 10.0 0.00 0.00 0.00 83 1009.4
20260506010003 49 29 4.0 12.0 0.00 0.00 0.00 83 1009.5
20260506005403 49 30 4.0 12.0 0.00 0.00 0.00 83 1009.5
20260506004718 49 27 3.0 10.0 0.00 0.00 0.00 84 1009.6
20260506003603 49 24 3.0 8.0 0.00 0.00 0.00 84 1009.6
20260506002703 49 20 3.0 7.0 0.00 0.00 0.00 84 1009.6
20260506002018 49 20 3.0 9.0 0.00 0.00 0.00 84 1009.7
20260506001117 49 21 3.0 9.0 0.00 0.00 0.00 84 1009.7
20260506000003 49 19 2.0 6.0 0.00 0.00 0.00 85 1009.8
20260505235403 49 19 2.0 10.0 0.00 0.00 0.00 85 1009.8
20260505234503 49 23 3.0 10.0 0.00 0.00 0.00 84 1009.9
20260505233817 50 28 3.0 11.0 0.00 0.00 0.00 84 1009.9
20260505232916 50 27 3.0 11.0 0.00 0.00 0.00 84 1010.1
20260505231803 50 19 4.0 14.0 0.00 0.00 0.00 83 1010.1
20260505230903 50 26 3.0 10.0 0.00 0.00 0.00 83 1010.0
20260505230003 50 25 3.0 10.0 0.00 0.00 0.00 82 1010.2
20260505225618 50 23 4.0 10.0 0.00 0.00 0.00 82 1010.1
20260505224717 50 28 2.0 8.0 0.00 0.00 0.00 82 1010.2
20260505223603 50 28 3.0 12.0 0.00 0.00 0.00 81 1010.3
20260505222703 50 27 3.0 9.0 0.00 0.00 0.00 80 1010.4
20260505222017 50 29 3.0 8.0 0.00 0.00 0.00 80 1010.4
20260505220903 50 22 4.0 11.0 0.00 0.00 0.00 79 1010.4
20260505220005 50 19 3.0 9.0 0.00 0.00 0.00 80 1010.5
20260505215403 50 25 2.0 8.0 0.00 0.00 0.00 80 1010.5
20260505214503 50 20 2.0 7.0 0.00 0.00 0.00 80 1010.6
20260505213603 50 29 2.0 8.0 0.00 0.00 0.00 80 1010.8
20260505212703 50 37 2.0 8.0 0.00 0.00 0.00 80 1010.7
20260505211803 50 32 1.0 6.0 0.00 0.00 0.00 80 1010.5
20260505210903 50 36 1.0 6.0 0.00 0.00 0.00 81 1010.5
20260505210003 50 24 1.0 5.0 0.00 0.00 0.00 81 1010.5
20260505205403 50 31 1.0 8.0 0.00 0.00 0.00 82 1010.5
20260505204716 50 33 2.0 8.0 0.00 0.00 0.00 82 1010.6
20260505203603 50 32 3.0 9.0 0.00 0.00 0.00 82 1010.8
20260505202703 50 25 3.0 9.0 0.00 0.00 0.00 82 1010.7
20260505201803 50 24 2.0 9.0 0.00 0.00 0.00 82 1010.7
20260505200903 50 23 3.0 9.0 0.00 0.00 0.00 82 1010.7
20260505200003 50 21 2.0 9.0 0.00 0.00 0.00 81 1010.7
20260505195403 50 26 3.0 9.0 0.00 0.00 0.00 81 1010.8
20260505194503 50 27 3.0 13.0 0.00 0.00 0.00 80 1010.7
20260505193603 50 20 4.0 9.0 0.00 0.00 0.00 80 1010.7
20260505192703 50 26 4.0 11.0 0.00 0.00 0.00 79 1010.7
20260505191803 51 23 4.0 11.0 0.00 0.00 0.00 78 1010.7
20260505190903 51 23 4.0 10.0 0.00 0.00 0.00 78 1010.6
20260505190003 51 25 4.0 11.0 0.00 0.00 0.00 78 1010.7
20260505185616 51 26 3.0 10.0 0.00 0.00 0.00 78 1010.6
20260505184503 51 19 4.0 13.0 0.00 0.00 0.00 77 1010.7
20260505183603 51 23 5.0 13.0 0.00 0.00 0.00 77 1010.7
20260505182703 52 24 4.0 10.0 0.00 0.00 0.00 76 1010.7
20260505181803 52 25 3.0 12.0 0.00 0.00 0.00 76 1010.6
20260505180903 52 27 4.0 11.0 0.00 0.00 0.00 75 1010.6
20260505180216 52 30 4.0 11.0 0.00 0.00 0.00 76 1010.5
20260505175404 52 21 4.0 12.0 0.00 0.00 0.00 75 1010.6
20260505174503 52 26 4.0 13.0 0.00 0.00 0.00 74 1010.6
20260505173603 52 32 4.0 12.0 0.00 0.00 0.00 73 1010.6
20260505172703 52 26 3.0 13.0 0.00 0.00 0.00 72 1010.6
20260505171803 52 26 4.0 12.0 0.00 0.00 0.00 73 1010.5
20260505170903 52 29 5.0 13.0 0.00 0.00 0.00 72 1010.6
20260505170003 53 23 4.0 12.0 0.00 0.00 0.00 70 1010.6
20260505165403 53 19 5.0 14.0 0.00 0.00 0.00 70 1010.6
20260505164503 53 25 4.0 12.0 0.00 0.00 0.00 71 1010.5
20260505163603 54 22 3.0 12.0 0.00 0.00 0.00 70 1010.5
20260505162703 54 22 4.0 13.0 0.00 0.00 0.00 70 1010.5
20260505161803 54 27 4.0 13.0 0.00 0.00 0.00 70 1010.4
20260505160903 53 31 5.0 14.0 0.00 0.00 0.00 71 1010.5
20260505152703 54 33 4.0 14.0 0.00 0.00 0.00 70 1010.9
20260505151803 54 25 5.0 12.0 0.00 0.00 0.00 70 1010.9
20260505150903 54 24 6.0 13.0 0.00 0.00 0.00 70 1010.9
20260505140217 55 26 5.0 12.0 0.00 0.00 0.00 68 1011.2
20260505124503 55 49 5.0 13.0 0.00 0.00 0.00 66 1011.5
20260505123817 56 67 4.0 12.0 0.00 0.00 0.00 64 1011.5
20260505122918 56 41 4.0 11.0 0.00 0.00 0.00 66 1011.5
20260505122017 55 55 5.0 15.0 0.00 0.00 0.00 64 1011.5
20260505120903 55 77 7.0 15.0 0.00 0.00 0.00 64 1011.6
20260505120003 56 43 5.0 11.0 0.00 0.00 0.00 64 1011.5
20260505115403 55 51 6.0 13.0 0.00 0.00 0.00 64 1011.5
20260505114717 55 49 5.0 12.0 0.00 0.00 0.00 67 1011.6
20260505113603 54 63 4.0 11.0 0.00 0.00 0.00 69 1011.6
20260505112703 53 44 4.0 11.0 0.00 0.00 0.00 67 1011.7
20260505111803 54 48 5.0 12.0 0.00 0.00 0.00 67 1011.9
20260505110903 53 37 4.0 11.0 0.00 0.00 0.00 69 1011.9
20260505101803 53 37 6.0 14.0 0.00 0.00 0.00 69 1011.8
20260505100903 53 35 6.0 15.0 0.00 0.00 0.00 67 1011.8
20260505100217 53 37 5.0 12.0 0.00 0.00 0.00 67 1011.8
20260505095403 54 35 5.0 12.0 0.00 0.00 0.00 66 1011.9
20260505094503 53 34 5.0 14.0 0.00 0.00 0.00 70 1011.9
20260505093603 53 45 5.0 13.0 0.00 0.00 0.00 69 1011.9
20260505092917 52 37 5.0 13.0 0.00 0.00 0.00 69 1012.0
20260505092016 52 41 5.0 13.0 0.00 0.00 0.00 70 1012.1
20260505090903 52 61 4.0 11.0 0.00 0.00 0.00 72 1012.2
20260505090003 52 39 4.0 11.0 0.00 0.00 0.00 70 1012.1
20260505085403 52 49 3.0 11.0 0.00 0.00 0.00 72 1012.2
20260505084503 52 60 3.0 10.0 0.00 0.00 0.00 70 1012.5
20260505083603 51 47 3.0 10.0 0.00 0.00 0.00 72 1012.4
20260505082703 51 52 4.0 10.0 0.00 0.01 0.00 72 1012.5
20260505081803 51 41 5.0 12.0 0.00 0.04 0.00 71 1012.4
20260505080903 50 33 6.0 13.0 0.00 0.09 0.00 72 1012.4
20260505080003 51 44 5.0 13.0 0.00 0.10 0.00 72 1012.3
20260505075403 51 56 4.0 11.0 0.00 0.10 0.00 73 1012.2
20260505074503 50 63 5.0 12.0 0.00 0.10 0.00 73 1012.1
20260505073603 50 44 4.0 11.0 0.00 0.10 0.00 74 1012.3
20260505072916 50 37 3.0 10.0 0.00 0.10 0.00 74 1012.3
20260505071803 50 30 4.0 13.0 0.00 0.10 0.00 75 1012.4
20260505070903 50 34 4.0 12.0 0.00 0.10 0.00 75 1012.3
20260505070003 50 49 3.0 10.0 0.00 0.10 0.00 78 1012.3
20260505065403 50 55 3.0 13.0 0.00 0.10 0.00 77 1012.2
20260505064717 50 38 3.0 9.0 0.00 0.10 0.00 78 1012.3
20260505063603 49 33 2.0 9.0 0.00 0.10 0.00 78 1012.3
20260505062703 49 27 2.0 7.0 0.00 0.10 0.00 78 1012.2
20260505061803 49 29 2.0 5.0 0.00 0.10 0.00 78 1012.3
20260505061117 49 28 2.0 6.0 0.00 0.10 0.00 78 1012.3
20260505060003 49 18 3.0 6.0 0.00 0.10 0.00 78 1012.2
20260505055403 49 27 3.0 10.0 0.00 0.10 0.00 79 1012.2
20260505054503 48 20 3.0 9.0 0.00 0.10 0.00 79 1012.3
20260505053603 48 25 3.0 10.0 0.00 0.10 0.00 80 1012.3
20260505052703 48 26 2.0 6.0 0.00 0.10 0.00 81 1012.3
20260505051803 48 31 3.0 8.0 0.00 0.10 0.00 81 1012.2
20260505050903 48 36 2.0 6.0 0.00 0.10 0.00 82 1012.3
20260505040903 48 37 2.0 6.0 0.00 0.10 0.00 83 1012.1
20260505040003 48 32 2.0 8.0 0.00 0.10 0.00 84 1012.1
20260505035617 48 37 2.0 6.0 0.00 0.10 0.00 84 1012.0
20260505034718 48 32 2.0 6.0 0.00 0.10 0.00 85 1012.1
20260505033817 48 29 3.0 8.0 0.00 0.10 0.00 85 1012.2
20260505032703 48 25 2.0 8.0 0.00 0.10 0.00 84 1012.1
20260505031803 48 25 3.0 8.0 0.00 0.10 0.00 84 1012.2
20260505030903 48 23 2.0 8.0 0.00 0.10 0.00 85 1012.2
20260505030004 48 24 2.0 6.0 0.00 0.10 0.00 85 1012.2
20260505025403 48 25 2.0 6.0 0.00 0.10 0.00 85 1012.3
20260505024503 48 24 2.0 7.0 0.00 0.10 0.00 84 1012.4
20260505023603 48 31 1.0 5.0 0.00 0.10 0.00 85 1012.4
20260505022703 49 40 1.0 5.0 0.00 0.10 0.00 85 1012.4
20260505022018 49 37 2.0 5.0 0.00 0.10 0.00 85 1012.5
20260505020903 49 17 2.0 5.0 0.00 0.10 0.00 85 1012.6
20260505020003 49 29 2.0 8.0 0.00 0.10 0.00 85 1012.6
20260505015618 49 24 2.0 8.0 0.00 0.10 0.00 85 1012.7
20260505014503 49 26 2.0 8.0 0.00 0.10 0.00 85 1012.7
20260505013817 49 22 2.0 6.0 0.00 0.10 0.00 85 1012.9